User: anonymous   Login
Location: Unspecified
(0.0000°N, 0.0000°E)
Time: 02:05:27
(UTC+00:00)
Language:

Picosat 3 - Orbit

View from above orbital plane
View from above orbital plane
View from above satellite
View from above satellite

Ground track
Ground track

The orbit data is extracted from the following two-line orbital elements,

1 26091U 00004J   18053.95813743  .00000248  00000-0  81815-4 0  9990
2 26091 100.2008 200.5900 0029663  90.9618 269.4968 14.48801197949948
Epoch (UTC): 22 February 2018 22:59:43
Eccentricity: 0.0029663
inclination: 100.2008°
perigee height: 708 km
apogee height: 750 km
right ascension of ascending node: 200.5900°
argument of perigee: 90.9618°
revolutions per day: 14.48801197
mean anomaly at epoch: 269.4968°
orbit number at epoch: 94994

The dashed part of the orbit path shows where the satellite is in the earth's shadow,  

DLR